Location: Newark
(45.5000°N, 11.4167°E)
Time: 05:47:05
(UTC+00:00)

Altair - Pass Details

Date: 02 September 2019
Orbit: 1501 x 1683 km, 47.2° (Epoch: 14 September)

Event Time Altitude Azimuth Distance (km) Brightness Sun altitude
Exits shadow 22:30:34 25° 87° (E) 2,851 8.7 -35.9°
Drops below altitude 10° 22:34:24 10° 73° (ENE) 3,842 9.6 -36.0°
Sets 22:37:40 0° 67° (ENE) 4,805 10.2 -36.1°
